Forside
METAR-TAF:

METAR-TAF

Lufthavne :

Okmulgee, Oklahoma, USA

Breddekreds: 35-40-05N, længdekreds: 095-56-55W, højde: 220 m

Aktuelle vejr

Denne rapport blev lavet for 22 minutter siden, kl. 17:15 UTC
Vind 19 kt fra sydsydøst med vindstød på up til 29 kt
Temperatur 7°C
Fugtighed 53%
Tryk 1019 hPa
Sigt: 16.1 km
skyfri

METAR: KOKM 211715Z AUTO 16019G29KT 10SM CLR 07/M02 A3008 RMK AO2 T00681018

Tid: 11:37 (17:37 UTC)


TAF: fraværende

Vejrobservationer og prognoser fra mere end 4000 lufthavne (METAR og TAF).

De gule og røde prikker repræsenterer de meteorologiske stationer.

Flyt musen over at se navnet på stationen.

Så klik over at se vejr observationer og prognoser.

At skifte det kort: Klik på de grønne knapper med et sort kors for at zoome ind; på den grønne knap med en bindestreg for at zoome ud; eller på de grønne pile for tilstødende kort.


METAR-TAF: